This is the latest recevied weather packets stored in our database for station/object WE8M. If no packets are shown the sender has not sent any weather packets the latest 10 day(s).
| Time | Temp. | Humidity | Pressure | Rain* | Wind** | Luminosity | Snow |
|---|---|---|---|---|---|---|---|
| 1777730314 | 7.78° C | 61% | 1017.9 hPa | 0 mm | - | - | - |
| 1777729707 | 7.78° C | 62% | 1017.8 hPa | 0 mm | - | - | - |
| 1777729100 | 7.22° C | 65% | 1017.8 hPa | 0 mm | - | - | - |
| 1777728797 | 7.22° C | 63% | 1017.9 hPa | 0 mm | - | - | - |
| 1777728494 | 6.67° C | 66% | 1017.8 hPa | 0 mm | - | - | - |
| 1777728191 | 6.67° C | 70% | 1017.9 hPa | 0 mm | - | - | - |
| 1777727888 | 6.67° C | 67% | 1018 hPa | 0 mm | - | - | - |
| 1777727282 | 6.11° C | 71% | 1018 hPa | 0 mm | - | - | - |
| 1777726374 | 5.56° C | 75% | 1018.1 hPa | 0 mm | - | - | - |
| 1777725466 | 5.56° C | 74% | 1017.7 hPa | 0 mm | - | - | - |
| 1777724859 | 5.56° C | 76% | 1017.7 hPa | 0 mm | - | - | - |
| 1777724555 | 5.56° C | 75% | 1017.6 hPa | 0 mm | - | - | - |
| 1777723344 | 4.44° C | 79% | 1017.6 hPa | 0 mm | - | - | - |
| 1777722739 | 4.44° C | 84% | 1017.3 hPa | 0 mm | - | - | - |
| 1777721829 | 3.33° C | 92% | 1017.6 hPa | 0 mm | - | - | - |
| 1777721527 | 3.33° C | 92% | 1017.6 hPa | 0 mm | - | - | - |
| 1777721225 | 3.33° C | 92% | 1017.4 hPa | 0 mm | - | - | - |
| 1777720922 | 2.78° C | 93% | 1017.3 hPa | 0 mm | - | - | - |
| 1777720619 | 2.78° C | 93% | 1017.2 hPa | 0 mm | - | - | - |
| 1777720316 | 2.78° C | 93% | 1017.3 hPa | 0 mm | - | - | - |
| 1777720014 | 2.78° C | 93% | 1017.4 hPa | 0 mm | - | - | - |
| 1777719711 | 2.78° C | 94% | 1017.1 hPa | 0 mm | - | - | - |
| 1777719409 | 2.78° C | 94% | 1017.2 hPa | 0 mm | - | - | - |
| 1777719106 | 2.22° C | 95% | 1017.4 hPa | 0 mm | - | - | - |
| 1777718803 | 2.22° C | 95% | 1017.2 hPa | 0 mm | - | - | - |
* Rain latest hour (hover to see other rain measurements)
** Current wind speed in m/s (hover to see current wind gust speed)